Theta_e
292 293 293 293 294 294 294 295 297 299 301 304 305 303 303 306 307 310 313 316 319 321 324 326 329 330 330 331 331 331 331 333 333 334 334 334 334 331 326 328 331 334 338 344 346 345 348 347 345 346 347 349 348 346 346 346 345 344 345 344 343 342 341 341 340 341 341 340 340 340 339 338 337 337 336 336 335 334 334 332 332 331 331 329 329
292 292 292 292 293 293 293 294 295 297 301 302 302 301 302 303 304 306 309 312 316 319 320 323 325 327 330 330 330 331 331 332 332 333 333 334 334 332 325 325 328 334 336 339 344 346 348 345 343 345 346 346 346 346 346 344 343 346 345 343 344 343 342 340 341 341 340 340 339 339 338 337 337 336 336 336 335 333 333 332 331 331 330 329 329
292 292 292 292 292 292 292 293 294 296 298 299 300 300 301 302 302 304 306 309 312 316 319 320 323 325 326 328 329 330 331 331 332 332 332 333 333 332 331 323 325 329 332 336 340 343 347 345 343 347 347 346 345 350 347 343 346 346 343 344 344 344 340 340 340 340 340 339 339 338 337 337 337 336 336 335 333 333 332 331 330 329 329 329 329
291 291 292 292 291 291 292 292 293 295 297 298 298 299 299 300 301 302 304 306 308 312 316 318 320 323 325 326 329 329 329 330 331 331 332 332 332 332 331 329 322 324 327 333 338 340 343 343 342 342 344 346 346 348 347 345 346 344 344 344 344 343 340 340 340 339 339 339 338 338 337 336 336 335 335 334 333 332 331 330 329 329 328 328 328
290 291 292 291 291 291 291 292 293 294 296 297 297 297 298 298 299 301 302 303 305 307 311 315 317 320 323 325 326 327 329 330 329 330 330 331 331 331 331 330 329 321 322 325 332 337 341 341 340 343 344 347 346 347 344 346 345 344 345 343 344 344 343 342 339 338 338 338 338 338 337 336 335 334 334 333 332 331 330 329 329 329 328 328 328
289 289 290 290 290 291 291 291 292 293 295 296 295 296 296 297 298 299 300 300 301 304 307 309 312 316 320 323 325 326 328 329 329 329 330 330 330 330 330 330 329 329 327 321 323 328 335 339 341 341 341 343 343 343 342 343 344 343 344 344 342 344 343 342 340 339 338 338 337 337 336 335 334 333 332 332 332 330 329 328 329 329 328 328 327
288 289 289 289 289 290 290 290 292 293 293 294 295 295 296 296 297 297 298 299 301 303 304 306 309 312 315 319 321 324 326 327 328 328 328 329 330 329 329 329 328 328 328 328 320 321 327 334 339 341 342 342 342 342 340 341 343 344 344 345 344 343 343 340 340 340 339 338 337 336 335 334 333 332 332 331 330 329 328 328 328 328 328 327 327
287 287 288 289 288 288 289 290 291 291 292 293 294 294 295 296 297 297 296 296 298 300 301 301 303 306 310 314 318 321 323 326 327 327 328 328 328 328 329 328 328 328 323 328 328 325 322 327 334 338 340 339 341 342 345 343 342 344 342 343 344 344 343 339 339 340 339 337 335 335 334 333 332 331 331 330 330 329 329 329 328 328 328 326 325
286 287 286 285 285 286 287 288 289 290 291 292 293 294 294 295 296 296 296 295 297 297 298 299 300 302 305 310 313 317 321 324 325 327 327 326 327 328 328 328 327 319 326 326 328 329 324 323 328 332 332 335 339 342 343 342 344 344 343 340 343 343 341 339 339 338 336 335 335 334 333 333 332 331 330 330 329 328 328 329 327 327 327 326 326
285 286 285 285 285 285 285 286 286 287 289 291 292 294 295 295 294 295 295 295 295 295 296 297 299 301 303 306 310 314 318 322 324 321 325 325 326 326 327 328 327 327 326 326 326 328 329 325 323 325 324 327 334 339 341 342 344 344 344 343 345 344 339 338 338 337 336 335 335 334 334 332 331 330 330 329 329 328 328 328 327 327 327 327 326
284 285 284 284 284 284 284 284 285 285 286 288 291 293 294 295 294 293 294 295 295 295 296 297 298 300 302 304 308 311 314 319 322 323 324 325 325 324 327 327 327 327 326 326 326 327 328 330 329 328 330 323 331 335 339 342 340 341 341 344 345 344 340 337 338 337 336 335 334 333 333 332 331 330 329 329 328 328 328 327 327 328 328 327 326
284 284 284 284 283 283 283 284 284 284 284 285 288 292 293 293 292 292 293 294 295 295 295 295 296 297 298 301 305 309 312 315 319 322 322 324 324 325 325 326 326 326 326 326 326 325 327 329 327 330 331 327 325 330 335 336 335 339 340 343 344 344 340 337 337 336 335 335 334 333 332 331 331 330 329 328 328 328 328 327 327 328 328 326 326
284 283 283 284 283 283 283 283 283 283 283 283 285 288 291 292 293 294 293 293 293 294 294 296 295 294 296 298 302 308 312 315 318 321 322 323 324 324 324 324 325 325 326 326 325 325 326 327 329 330 330 332 326 323 328 330 326 335 342 341 344 344 342 338 337 336 335 334 333 332 331 331 330 330 329 328 328 328 327 327 329 329 327 327 326
283 283 283 282 282 282 282 282 282 282 283 284 284 287 289 291 293 293 294 292 292 294 294 295 292 292 292 294 297 300 305 313 317 319 321 323 323 324 324 324 324 325 325 325 325 324 325 326 328 329 330 331 331 328 328 329 327 332 342 343 344 344 341 339 338 337 334 333 333 333 332 330 329 329 329 328 328 328 328 329 330 328 328 327 327
282 282 282 282 282 282 282 282 282 283 283 283 284 284 287 289 291 291 291 292 292 294 294 295 292 294 295 294 291 293 300 307 311 316 320 321 323 323 323 323 323 324 325 324 324 324 324 325 326 327 329 329 330 330 330 324 328 323 331 335 339 341 340 340 338 337 335 333 332 332 331 330 330 329 329 328 328 329 329 329 328 328 328 328 326
281 281 282 281 281 281 281 282 282 283 283 282 283 284 285 287 288 290 291 289 291 291 294 295 295 293 288 291 294 296 294 300 307 310 315 319 320 321 322 322 323 324 324 323 323 324 324 324 324 326 327 329 329 329 330 331 324 316 319 326 329 337 339 339 338 337 334 334 332 331 330 329 329 328 329 329 329 329 329 329 328 328 328 328 328
281 281 281 281 281 281 281 282 282 281 282 281 281 283 285 287 288 289 290 290 290 291 292 294 295 296 292 290 288 288 290 300 301 305 309 312 316 319 319 321 322 322 322 323 324 324 323 323 323 324 324 326 328 328 329 329 327 321 323 318 325 329 331 338 338 338 336 335 333 330 330 329 329 329 329 329 329 329 329 329 328 328 328 328 328
280 280 280 281 280 281 281 281 280 280 281 280 281 282 283 285 288 290 291 292 291 291 291 293 294 294 296 295 293 289 291 293 293 291 301 303 308 314 317 319 322 321 321 322 322 322 322 323 323 323 323 324 326 327 327 328 324 327 329 327 326 329 329 332 335 336 337 336 335 332 331 330 329 328 329 330 329 329 329 329 328 328 328 328 328
279 279 279 280 280 280 279 279 279 279 280 280 280 281 282 284 286 289 291 292 292 290 291 292 291 293 295 296 296 296 296 293 289 294 293 301 303 308 313 315 318 320 320 320 321 322 322 321 322 322 322 323 324 325 326 327 322 321 318 318 322 326 327 326 328 331 333 335 335 334 333 330 329 330 329 329 329 329 329 329 328 329 328 328 328
278 278 279 278 279 278 279 279 279 279 280 280 279 280 281 284 286 288 290 291 292 292 292 292 290 290 293 293 294 296 297 297 296 293 292 291 300 304 307 313 314 317 319 319 320 320 320 320 321 320 321 321 322 323 324 325 325 325 321 318 321 325 326 325 325 324 327 330 333 334 332 331 330 330 329 329 328 329 328 329 329 329 328 328 328
278 277 277 277 278 278 278 279 279 278 279 279 279 279 279 280 282 284 286 288 290 292 293 292 291 291 290 291 293 294 295 295 295 295 293 292 294 302 304 304 310 313 316 319 320 320 319 319 320 320 318 319 320 321 321 321 322 323 321 317 321 324 324 323 323 322 322 325 329 331 332 332 332 331 330 330 329 329 329 329 329 329 328 329 329
276 277 277 277 277 277 277 276 276 276 278 277 278 278 278 279 281 283 284 285 288 290 292 293 293 293 292 292 291 292 292 292 292 292 294 295 293 298 305 305 305 309 312 316 318 318 319 319 318 318 318 319 320 319 319 320 320 319 319 316 319 320 322 324 323 323 323 324 324 325 329 330 331 331 331 331 330 330 329 329 329 329 329 329 329
276 276 276 276 276 276 276 275 276 277 278 277 277 276 277 277 278 280 282 284 286 288 291 293 293 293 292 293 292 292 291 289 290 291 292 292 294 299 304 307 308 307 309 314 315 317 318 318 317 317 317 318 319 318 318 319 313 313 312 315 318 319 322 324 323 321 322 322 322 322 324 325 327 329 331 331 331 330 330 329 329 329 329 329 329
275 274 274 275 275 275 275 275 276 276 276 276 276 276 276 277 277 278 281 284 287 288 290 291 293 293 292 293 293 294 294 293 293 293 292 292 293 293 300 306 307 308 309 312 314 315 316 316 317 316 317 317 318 317 318 318 316 307 310 312 316 318 322 323 322 320 321 321 320 320 323 324 324 324 326 328 330 331 330 329 329 329 330 330 329
273 273 273 274 274 274 274 274 274 274 274 275 275 276 276 276 277 279 280 283 287 289 290 291 292 291 291 292 294 294 294 295 295 294 294 294 293 292 294 303 305 304 303 310 309 312 315 315 316 316 316 316 317 317 317 317 315 309 310 308 313 316 317 319 319 321 320 319 318 319 322 323 322 324 326 326 328 329 330 330 329 330 330 330 330
273 273 273 274 274 274 274 273 274 274 275 275 275 275 276 276 277 279 282 285 287 288 289 290 291 292 292 291 291 293 294 295 295 295 294 293 292 292 294 299 304 304 298 306 307 308 305 313 315 315 315 316 316 316 316 316 314 307 309 313 313 313 316 319 320 319 318 318 318 318 317 319 322 323 324 327 327 328 329 329 330 330 330 330 331
273 273 274 273 273 273 273 273 273 273 274 274 275 275 275 277 278 278 279 280 284 286 287 289 291 291 291 291 291 292 294 294 295 294 295 294 294 294 294 293 295 294 301 304 306 309 308 309 313 312 313 313 314 315 315 315 310 306 306 317 316 310 314 317 319 318 316 317 317 317 316 317 319 322 322 322 325 326 328 329 329 330 330 330 329
273 273 273 273 273 272 273 273 273 273 273 274 274 274 274 275 275 276 277 280 282 283 285 288 291 292 291 291 291 292 294 294 295 295 295 295 295 296 296 295 296 295 294 298 305 305 309 304 301 306 309 311 313 315 311 311 312 305 305 316 316 314 312 314 317 317 317 317 316 315 315 316 317 318 319 319 320 320 321 322 324 324 324 325 325
273 273 273 273 273 272 272 272 272 272 272 273 273 273 273 274 274 275 276 280 281 282 284 287 290 292 292 292 292 292 293 294 295 295 295 295 296 296 297 296 296 299 296 295 304 304 305 309 305 299 307 309 311 313 314 314 308 308 315 316 316 316 311 313 315 316 317 317 316 316 315 315 316 317 317 318 318 319 320 321 322 322 322 323 324
273 273 273 272 272 273 272 271 271 272 272 272 272 273 273 273 273 275 277 278 279 281 283 286 288 291 292 292 292 292 293 294 294 295 295 295 295 296 297 298 298 298 302 299 302 307 305 308 309 302 302 308 311 311 314 313 305 310 315 316 316 316 309 310 313 315 315 315 316 317 316 315 315 315 315 317 318 319 320 320 320 321 322 323 326
273 272 272 271 271 271 271 271 271 271 271 271 272 272 272 272 273 275 277 278 279 280 283 285 287 290 291 291 292 292 293 293 294 295 295 295 295 296 297 298 298 299 304 304 301 304 307 306 305 304 304 306 310 311 312 311 306 311 315 315 315 309 306 309 310 313 313 313 315 315 315 315 315 315 315 315 317 318 320 319 319 320 321 322 325
272 272 271 271 271 271 271 270 270 271 271 271 271 271 272 272 274 275 276 278 279 280 282 284 286 289 290 290 291 291 292 293 294 294 295 295 296 296 297 298 298 300 303 306 304 303 306 308 305 303 306 305 306 308 307 308 307 305 313 314 313 304 310 313 308 310 311 313 314 314 314 314 315 315 315 315 317 318 318 318 318 319 320 321 323
271 271 271 271 271 271 270 270 270 270 270 270 271 271 271 272 273 273 275 276 278 279 281 284 286 288 290 290 290 291 292 292 293 294 294 295 296 296 297 298 298 300 303 305 303 302 295 297 301 302 304 305 305 307 306 306 306 309 309 312 311 311 313 313 312 306 309 311 312 314 314 314 314 314 314 314 315 317 317 318 318 317 319 321 322
271 271 271 271 271 270 270 269 270 270 270 270 270 271 270 270 270 272 273 274 276 278 281 282 284 287 290 289 290 291 292 292 292 293 294 294 295 295 297 297 298 300 304 305 304 301 296 295 298 299 301 307 305 305 306 305 305 306 308 309 311 311 313 313 312 311 307 310 312 313 313 313 313 314 313 313 315 315 316 318 316 315 316 319 318
271 271 271 271 270 270 269 269 269 269 270 270 270 270 270 270 270 271 273 274 276 277 278 279 281 285 288 289 289 290 291 291 292 293 294 294 295 295 296 298 299 301 304 306 304 300 298 298 299 299 301 303 305 303 305 307 307 308 307 307 308 310 311 311 312 311 307 310 312 312 312 312 313 313 313 313 313 313 314 315 314 313 315 316 316
270 270 270 270 270 269 269 269 269 269 270 270 271 271 271 271 271 271 273 275 276 277 277 279 280 283 287 288 289 289 290 290 290 291 293 294 294 295 296 297 299 300 303 305 304 302 300 298 298 301 302 303 303 305 306 306 306 306 307 306 307 308 308 308 310 310 308 310 310 311 311 312 312 312 312 312 312 312 313 313 313 313 313 313 313
269 269 269 269 268 268 268 268 268 269 269 270 270 271 272 273 273 273 273 274 275 276 277 278 280 282 285 288 288 289 289 289 289 290 291 292 293 295 295 297 299 301 304 304 302 302 301 299 299 301 303 304 303 304 304 303 303 304 304 304 305 306 306 305 307 310 306 308 308 309 310 311 311 312 312 312 312 312 312 312 312 312 311 311 310
268 268 267 267 268 267 268 268 268 269 269 269 269 270 270 270 271 271 271 272 273 274 276 277 279 281 283 287 288 289 289 288 288 289 290 291 292 294 295 297 299 301 302 301 301 300 301 300 299 298 301 301 299 301 303 304 302 299 300 300 301 302 303 302 304 307 308 311 311 311 308 309 308 310 311 311 311 311 311 311 311 310 308 308 308
266 266 266 266 267 267 267 268 268 268 268 269 269 269 270 270 271 271 271 272 272 273 275 277 279 281 284 286 288 289 289 289 289 290 291 291 292 293 295 297 299 301 300 299 300 300 299 298 298 300 299 299 301 299 302 304 302 301 298 297 297 298 303 305 302 302 306 310 309 308 310 310 308 310 309 309 310 310 309 310 309 309 306 306 307
266 265 265 265 266 266 267 267 268 268 268 268 269 269 270 270 270 270 270 272 273 274 275 277 279 281 284 286 288 289 289 289 288 289 289 290 292 293 295 297 299 301 300 298 299 299 298 297 297 297 298 297 298 300 300 301 300 298 300 300 298 296 300 303 303 302 301 307 307 307 307 307 307 309 308 308 308 309 308 307 306 306 303 305 306
265 265 265 265 265 265 266 267 267 268 268 268 269 269 269 270 270 270 270 271 272 274 275 276 278 280 284 286 288 288 288 288 288 289 289 290 289 289 292 297 298 300 298 297 298 298 297 297 297 298 297 296 297 296 297 299 299 299 300 302 301 300 301 301 297 297 298 303 302 304 304 305 307 308 309 307 310 307 306 305 305 301 302 305 306
264 265 265 265 265 265 265 266 267 268 268 269 271 274 274 272 272 272 272 272 273 273 274 275 277 280 284 286 287 287 287 287 287 288 288 288 288 288 290 292 295 297 297 297 297 297 297 296 296 296 295 295 295 296 298 300 302 301 300 301 299 298 299 299 296 294 297 301 299 300 301 297 304 301 303 306 307 304 305 305 307 305 303 306 307
263 264 264 264 265 265 265 266 267 268 268 269 273 275 276 277 274 273 274 275 275 276 276 276 277 279 281 283 286 287 287 287 287 287 288 288 288 290 291 291 292 296 296 296 297 297 296 296 296 296 296 295 296 298 299 300 300 300 301 302 300 297 297 296 295 294 291 302 301 301 298 292 299 301 299 304 304 302 304 304 304 303 304 306 306
263 264 264 264 265 266 266 267 267 268 268 272 274 275 276 277 277 274 273 273 273 273 275 276 277 278 280 283 286 287 287 287 287 287 287 288 288 289 291 292 293 294 298 298 297 296 296 296 295 296 296 296 296 298 300 300 300 301 301 301 299 297 297 297 298 296 296 297 302 300 298 292 293 300 298 299 301 301 304 305 304 304 305 306 306
264 264 264 264 265 266 266 267 267 268 268 272 274 276 276 277 277 276 273 273 273 273 274 275 278 279 280 282 284 286 287 287 286 286 286 286 287 289 291 292 293 294 297 299 299 299 299 297 296 296 298 298 297 298 300 302 302 300 300 299 298 299 299 299 300 298 292 296 301 299 298 293 293 294 296 295 296 299 302 303 304 304 305 306 306
264 264 264 264 265 266 267 267 267 268 269 272 275 276 276 277 277 277 274 273 274 274 274 276 278 279 280 280 282 284 286 286 286 286 286 286 287 288 291 294 295 295 295 297 297 297 297 300 298 297 300 301 298 300 300 301 299 298 299 298 297 297 298 299 298 294 293 297 300 299 297 292 292 295 295 296 295 297 300 303 304 304 305 305 305
264 264 264 265 266 266 267 268 268 268 269 274 276 276 277 277 277 277 274 274 274 274 275 276 278 279 280 281 281 282 284 285 286 286 286 286 286 286 287 290 294 297 297 298 299 299 299 302 301 301 301 302 302 302 301 302 300 301 300 298 296 296 293 290 290 291 292 295 296 298 296 293 292 293 294 293 294 297 295 301 303 304 304 305 305
264 264 264 265 265 266 267 268 268 268 269 275 276 277 277 277 278 275 274 274 274 274 276 277 278 279 279 280 280 281 282 284 286 288 287 286 286 285 285 288 293 297 298 297 298 299 301 302 303 303 303 303 301 301 300 300 300 297 294 293 293 293 295 296 292 291 292 292 292 298 297 292 291 293 291 290 293 295 293 294 301 303 304 304 304
263 263 263 264 265 266 266 267 268 269 269 273 276 276 277 277 277 274 274 273 274 274 275 277 279 280 281 281 281 281 282 283 286 288 288 288 285 285 285 287 292 295 296 298 297 298 299 299 300 300 301 301 300 301 300 300 297 296 297 296 294 296 296 295 291 291 292 293 291 293 293 292 291 292 290 290 292 294 293 294 295 302 303 303 304
261 262 263 263 265 266 266 267 268 268 270 273 276 277 277 278 277 274 273 273 273 274 276 278 279 279 279 281 281 281 282 284 286 288 289 287 285 285 285 286 290 293 295 298 298 298 297 298 298 298 299 299 299 300 300 299 298 297 298 296 295 297 296 295 292 293 293 292 293 292 295 293 292 292 289 287 290 289 292 292 293 296 301 302 303
261 262 263 263 264 265 266 268 271 271 271 273 276 277 278 278 277 275 274 273 272 273 275 276 278 279 280 281 282 283 283 285 287 288 288 287 285 285 285 286 289 292 295 297 296 295 295 293 295 296 295 297 298 300 298 297 296 297 301 298 297 297 296 295 294 294 292 291 293 292 296 291 292 292 291 289 290 287 285 289 290 292 298 299 301
Wind_Speed
8 8 8 9 9 9 9 8 7 7 7 8 8 9 9 9 10 11 12 13 11 12 12 12 12 11 12 12 13 13 14 12 11 11 11 11 11 13 20 22 23 24 25 31 31 35 30 28 32 32 29 28 28 30 29 25 27 29 28 29 32 31 32 30 26 27 27 25 25 25 25 25 25 24 24 24 24 24 23 23 21 21 21 20 20
9 8 8 9 9 9 9 9 9 8 7 8 7 8 9 9 10 10 12 13 12 12 11 13 13 13 13 13 14 14 13 12 12 11 11 11 11 12 19 21 23 25 25 27 30 33 30 29 32 30 31 34 34 31 32 28 31 28 28 32 31 31 29 31 26 28 27 25 25 26 26 25 25 24 24 24 24 23 23 23 22 22 21 21 21
8 9 8 8 8 9 9 9 10 9 8 8 6 8 8 9 10 10 10 11 12 12 11 13 13 13 14 14 15 13 12 12 12 12 12 11 11 11 15 21 22 24 25 26 28 30 31 29 30 29 31 34 34 33 32 31 32 29 31 32 31 28 32 29 27 26 26 24 25 25 25 25 25 24 24 24 23 22 22 23 23 22 21 21 21
7 8 9 10 9 8 8 8 10 10 10 9 9 8 9 9 9 9 10 10 11 12 12 12 13 13 13 13 12 12 13 13 12 13 12 12 12 11 12 14 20 22 24 27 27 28 25 30 32 31 34 33 32 32 36 33 31 33 32 31 31 32 31 29 29 28 28 25 25 25 25 25 24 22 22 23 23 22 22 23 23 23 22 22 22
7 8 10 9 10 9 9 8 8 9 10 12 11 9 8 8 9 8 9 10 10 12 12 12 12 13 12 14 13 13 13 13 12 13 13 13 12 12 12 13 13 20 25 25 27 28 26 28 29 32 32 28 29 29 32 33 32 35 35 34 33 34 30 30 29 30 29 28 27 25 24 23 22 22 23 24 24 23 23 23 23 23 23 22 22
10 11 9 9 9 9 9 9 8 9 10 10 11 10 9 9 9 9 9 9 11 11 11 13 12 12 12 12 12 13 12 13 13 13 13 13 12 12 12 12 12 12 15 25 26 26 28 29 32 32 29 27 28 32 30 32 34 35 32 34 35 32 33 34 34 33 32 33 30 27 25 24 23 23 25 24 23 23 23 23 23 23 23 23 22
12 12 12 10 10 10 9 9 9 9 10 9 10 10 10 10 8 9 9 9 9 10 11 12 14 14 14 12 13 14 12 12 13 13 14 13 12 12 12 12 13 12 13 13 21 29 28 30 31 30 28 22 26 27 30 33 36 34 33 37 36 35 34 33 32 34 31 29 29 29 28 26 25 24 25 25 24 24 24 24 24 24 23 23 23
12 12 10 10 11 11 11 11 12 11 10 10 9 10 10 10 9 7 10 10 10 11 9 12 13 15 15 13 13 14 13 12 13 12 13 12 12 13 12 13 13 13 13 12 13 18 29 29 29 29 28 27 27 30 29 30 33 35 33 35 36 36 35 36 35 35 33 28 25 26 27 26 25 26 26 25 24 25 24 25 25 24 24 23 24
13 11 11 12 12 12 12 13 12 12 12 11 10 9 10 10 10 8 7 10 11 11 11 11 12 14 15 16 14 14 13 13 14 13 12 13 13 13 13 14 14 15 13 12 13 13 21 28 27 26 25 22 22 23 25 30 35 33 33 33 35 37 34 34 36 35 30 29 27 26 26 27 27 28 27 26 25 25 25 25 24 23 23 24 23
12 11 11 10 10 10 11 13 14 14 13 12 11 11 10 10 11 9 8 9 10 10 11 11 11 13 14 15 16 14 14 14 14 13 12 13 14 15 14 13 13 14 14 14 14 13 13 20 27 26 24 23 24 22 24 28 35 33 37 38 38 38 36 35 35 33 28 29 28 27 27 29 30 30 29 28 27 27 26 25 24 25 24 24 24
12 12 12 11 10 11 12 12 12 13 14 14 12 11 11 10 11 12 10 9 10 10 11 11 11 12 13 16 16 16 14 15 14 13 13 15 16 15 13 14 13 15 15 15 14 14 14 13 13 15 17 23 25 26 27 28 27 31 34 38 38 37 37 36 33 31 30 28 28 28 27 30 30 29 30 30 29 28 27 26 27 26 25 24 24
11 11 10 10 11 11 11 10 10 12 14 16 14 11 11 11 12 13 14 11 9 9 9 10 11 13 15 16 16 16 17 16 15 16 15 15 15 14 14 14 14 15 16 15 14 15 14 14 12 13 14 18 24 25 27 23 24 30 35 39 41 39 38 35 35 32 29 28 31 32 30 31 30 30 29 29 30 29 28 28 29 26 26 25 25
10 11 11 11 10 10 11 9 9 11 12 14 16 16 13 12 12 11 13 13 11 8 8 7 11 13 11 13 14 13 14 16 18 17 16 14 13 14 14 14 14 15 15 14 15 15 14 14 13 12 13 12 15 23 25 25 26 27 38 38 42 41 40 37 34 29 33 34 32 32 33 31 31 30 30 30 30 30 30 31 28 29 27 26 26
11 11 11 11 12 11 10 10 10 11 12 13 15 16 16 13 11 11 9 11 12 9 8 6 9 9 12 13 14 12 13 14 16 18 18 17 15 15 15 15 16 15 14 13 14 15 15 14 13 13 13 13 13 13 15 18 22 30 39 42 43 42 41 42 38 38 34 35 33 31 30 32 32 31 30 31 30 30 31 30 29 29 27 28 27
10 12 11 11 12 12 11 11 11 10 12 13 13 15 14 14 13 12 12 10 12 10 8 6 10 8 8 11 12 13 11 7 9 15 18 17 16 16 17 17 18 16 13 13 13 14 14 13 14 14 15 14 12 12 13 16 17 30 34 38 37 39 41 41 43 41 36 35 33 33 33 32 31 32 31 32 32 32 31 30 29 28 28 28 30
11 11 11 12 13 14 13 12 10 8 10 13 14 14 14 13 13 13 12 14 11 11 8 7 7 5 7 4 8 8 12 10 11 12 14 18 18 18 16 16 17 15 13 14 14 14 14 14 15 14 15 15 13 12 13 14 20 27 32 35 35 37 41 41 43 41 37 37 35 33 33 33 31 32 33 33 33 33 33 31 30 29 29 28 27
11 11 10 12 13 13 13 11 9 10 10 12 12 13 14 14 15 14 14 13 14 12 10 7 8 7 7 7 7 7 10 10 11 11 7 12 16 17 17 17 16 16 14 15 15 14 14 14 14 14 15 14 14 13 13 14 14 16 25 32 34 32 38 42 42 41 40 40 35 35 34 35 33 32 32 33 34 34 33 31 31 30 30 28 28
10 11 11 11 11 10 9 12 14 12 10 9 11 13 13 15 15 13 14 13 14 14 15 7 8 8 10 11 10 10 9 9 10 10 5 6 8 13 14 17 17 16 15 16 16 15 14 15 15 15 15 15 15 13 14 14 14 16 18 26 45 37 35 39 42 43 42 41 37 35 36 36 35 35 34 34 34 33 33 32 31 31 30 30 28
11 10 11 11 11 12 12 14 13 12 11 9 11 11 12 15 14 14 14 13 13 15 16 12 6 7 7 10 12 11 11 9 11 8 13 6 7 10 13 14 14 16 18 18 18 17 15 15 15 15 15 15 15 14 14 14 20 20 23 30 39 42 39 36 39 38 41 40 39 37 36 36 35 34 36 35 33 33 33 32 32 30 31 29 29
10 11 10 13 13 12 13 14 13 11 9 9 10 10 12 10 14 14 15 14 15 16 15 12 10 9 7 8 9 10 11 12 12 11 11 16 14 8 8 14 15 15 16 18 19 18 17 16 16 14 13 14 14 15 14 15 15 20 22 31 26 35 39 38 38 37 35 35 40 39 38 38 37 35 34 36 36 34 34 32 31 32 31 30 29
9 10 12 12 12 13 12 10 10 11 8 12 10 12 14 14 15 15 14 15 15 16 15 14 10 11 6 7 8 9 9 10 9 8 10 11 16 15 13 4 9 11 13 16 17 17 17 16 16 15 12 11 12 12 13 13 14 15 26 40 32 30 35 36 35 35 35 34 37 39 38 38 37 36 35 35 33 33 33 32 32 32 32 30 30
9 8 10 11 12 11 13 14 14 13 15 14 13 12 11 14 15 14 15 17 16 15 16 14 11 11 8 8 7 8 9 8 9 9 11 12 14 16 13 13 14 13 12 15 17 17 17 15 15 14 12 12 11 11 11 14 13 10 22 41 40 31 30 33 34 33 33 34 33 33 35 36 37 37 36 34 35 34 33 32 33 32 32 31 30
8 9 9 9 11 12 11 14 12 14 12 9 9 11 13 14 15 17 17 18 15 16 17 17 13 11 9 8 9 10 10 11 10 8 8 9 10 16 14 14 18 14 12 13 15 16 15 15 16 14 14 13 11 11 11 12 17 13 20 31 37 34 31 31 32 32 31 31 32 29 31 32 32 33 35 35 34 34 33 32 31 31 30 30 30
10 9 9 8 9 10 12 12 12 11 11 11 11 14 12 15 14 12 12 15 15 15 15 17 16 11 10 9 10 9 9 10 9 8 9 11 9 14 15 11 11 10 9 13 13 15 15 15 15 15 14 12 13 12 11 13 15 27 13 21 28 31 32 32 31 31 31 30 29 29 28 28 27 28 31 33 34 33 33 34 31 31 31 31 29
12 10 10 11 9 13 11 11 11 11 14 12 14 14 11 13 13 13 17 17 15 14 14 15 15 13 10 9 9 8 9 8 9 10 10 10 10 11 15 16 12 9 4 11 10 10 13 15 12 12 15 14 13 12 10 11 15 22 23 12 23 25 29 30 31 32 31 29 26 25 24 24 25 27 27 28 30 32 32 31 31 32 31 32 30
12 13 12 11 12 12 12 13 12 13 13 13 13 13 14 12 14 15 15 12 13 15 16 17 15 15 11 9 9 9 9 8 9 9 11 10 10 12 13 14 13 7 4 7 6 11 3 8 12 12 11 14 14 14 14 11 15 27 25 19 17 22 25 28 30 30 29 29 27 26 25 26 25 24 25 28 29 31 32 32 32 31 31 30 29
12 14 13 13 14 12 13 13 13 13 12 15 12 12 13 13 12 11 12 13 15 13 14 16 16 15 12 10 10 9 9 8 9 10 11 11 11 11 8 13 10 3 7 7 8 12 12 6 10 10 11 11 13 13 13 14 16 25 25 18 17 24 23 25 26 28 29 28 27 25 25 25 26 25 24 25 26 27 31 32 32 31 31 30 29
13 12 13 12 12 14 13 13 13 14 12 13 12 12 13 13 13 12 16 11 14 14 14 16 16 16 14 12 10 10 9 9 9 10 11 11 11 10 8 12 14 8 3 6 11 6 10 8 1 8 12 11 11 13 16 16 15 24 22 15 16 19 26 25 25 25 27 28 27 23 23 24 23 24 24 24 25 26 26 26 26 26 26 26 25
13 11 16 13 14 13 13 14 12 14 14 13 14 14 13 15 12 16 15 12 12 13 14 14 15 13 12 13 12 11 9 8 9 10 10 10 11 10 10 12 13 12 9 6 13 11 9 12 11 5 12 11 10 11 16 15 17 19 16 15 17 17 24 27 27 25 25 28 28 24 23 23 24 25 25 24 24 23 23 24 25 23 22 22 22
11 14 12 16 14 16 13 13 14 14 14 12 13 13 15 12 14 15 13 12 11 13 13 14 15 13 13 12 11 11 9 9 9 10 10 11 11 11 11 12 11 15 12 13 11 10 13 11 11 10 8 16 14 12 14 15 25 25 17 16 16 17 27 26 27 26 26 26 27 26 24 24 25 25 23 24 23 23 23 23 23 22 21 21 21
14 12 14 14 15 13 12 12 14 13 13 14 12 14 13 15 16 13 12 10 11 12 12 13 14 13 13 13 12 11 10 10 10 9 10 10 11 11 11 12 12 15 17 11 13 8 8 13 8 12 13 13 15 15 14 15 22 24 21 18 17 23 29 24 28 27 26 27 26 27 25 24 25 24 23 23 23 23 23 24 23 21 20 19 19
11 16 14 14 13 12 12 12 14 12 13 12 13 14 12 14 13 12 11 12 13 11 13 12 12 13 14 14 12 11 10 9 10 9 10 11 12 11 11 11 12 15 17 14 16 14 12 13 11 12 18 14 12 14 14 13 19 24 17 18 18 23 20 17 25 26 26 27 27 26 25 24 24 24 24 24 23 23 22 21 19 19 19 19 20
14 16 15 14 15 17 15 16 14 16 15 14 12 12 14 13 12 14 13 14 14 14 13 14 14 15 15 13 12 12 10 11 9 9 10 11 11 12 11 11 13 14 17 15 12 12 1 3 9 11 14 17 11 14 16 16 15 14 19 16 18 17 16 16 17 24 24 26 27 27 26 24 24 23 23 22 22 21 20 19 19 19 20 20 22
14 18 21 16 13 16 15 15 15 15 13 15 13 11 13 13 18 15 15 16 14 16 11 13 14 14 13 13 12 11 10 11 10 11 11 11 11 12 12 12 13 14 17 15 10 12 9 2 9 8 10 17 16 13 19 19 17 15 17 17 16 17 16 15 14 16 25 25 26 27 27 25 24 23 22 21 22 21 20 19 19 20 21 22 22
18 14 16 20 21 17 17 18 18 17 17 16 12 13 12 15 15 16 14 13 15 15 16 14 14 15 14 12 12 10 9 10 10 10 11 12 11 13 13 12 13 15 17 16 10 14 15 11 11 13 13 11 15 14 16 20 19 18 18 18 17 15 14 15 15 13 22 24 26 26 26 25 23 23 22 22 21 20 20 20 20 21 22 22 22
15 19 18 16 19 19 20 18 18 18 18 16 17 16 15 14 14 16 15 14 12 15 16 15 15 14 14 12 10 10 9 10 10 10 10 11 12 12 13 12 12 15 16 16 12 15 16 15 12 15 14 16 11 15 15 16 18 16 16 14 15 16 14 14 15 14 19 26 26 25 25 24 23 23 22 22 21 19 19 20 21 22 22 22 22
19 16 17 18 18 17 19 19 18 18 17 18 18 18 16 14 13 13 14 13 12 14 15 16 15 15 14 13 10 9 9 10 10 10 9 12 11 12 12 11 11 13 15 15 12 13 16 18 15 13 15 14 12 14 17 15 12 13 14 16 16 16 14 13 13 14 20 24 24 25 24 24 24 23 23 22 21 20 20 20 21 22 22 21 22
17 18 17 15 17 19 19 19 19 18 18 18 18 18 18 17 16 16 16 16 15 16 16 16 16 14 14 13 11 10 10 11 10 10 10 12 12 13 13 12 11 13 14 13 13 12 16 18 18 13 11 14 10 10 15 18 16 12 12 11 10 12 13 11 10 12 13 14 14 16 19 20 23 24 23 22 22 21 21 22 22 22 20 20 21
18 18 19 19 17 19 20 19 19 19 18 18 18 18 18 17 17 17 16 15 16 15 16 16 15 13 13 14 13 12 12 11 10 8 8 10 11 13 12 12 12 14 13 12 14 15 14 14 13 18 16 12 17 16 14 18 18 17 17 14 12 9 14 16 14 9 11 14 15 19 17 16 19 19 22 22 22 21 21 22 21 22 21 21 21
18 20 19 20 19 17 19 19 18 18 18 18 18 18 17 17 16 17 17 17 16 15 14 14 14 15 14 14 14 13 11 9 9 10 10 10 10 12 12 11 12 15 13 12 14 16 15 15 15 13 13 13 9 12 13 16 15 12 14 17 17 13 13 13 14 15 11 14 13 13 15 15 16 19 22 22 22 21 21 20 22 22 22 21 22
17 18 19 19 20 21 20 20 19 18 17 16 14 14 15 17 16 16 17 17 17 16 14 15 15 16 15 13 13 12 11 12 14 13 13 12 11 12 11 10 12 14 13 12 14 15 15 15 13 14 14 14 12 13 15 16 18 20 17 17 17 16 14 12 7 6 8 13 10 10 10 12 12 12 13 12 16 20 19 21 19 23 23 23 23
18 17 18 20 21 20 20 19 18 16 15 14 18 26 24 17 15 15 14 16 16 15 15 16 15 15 15 12 13 15 15 15 15 17 19 19 19 17 14 12 12 12 14 14 16 15 16 16 15 13 14 14 14 17 18 20 20 17 17 14 16 13 14 13 10 6 10 11 11 12 11 7 11 9 9 11 11 16 11 13 12 15 20 23 23
16 17 17 20 23 20 19 18 18 16 15 14 26 26 26 29 21 17 16 14 13 14 15 15 14 14 14 14 11 12 14 14 14 18 18 19 20 23 23 22 20 15 13 16 17 18 17 16 16 16 17 18 18 18 20 18 14 18 20 20 19 17 16 16 16 7 4 15 15 14 10 5 10 12 8 11 11 10 12 13 19 22 24 24 24
16 14 19 21 18 19 16 17 17 16 16 21 27 27 27 28 26 19 16 15 14 15 16 16 14 13 13 12 11 10 11 11 10 10 13 16 18 22 23 21 22 25 22 19 18 17 18 17 16 17 18 20 20 18 17 18 18 19 19 16 17 20 20 20 18 18 12 11 15 14 12 4 5 11 10 9 10 10 12 17 22 23 25 26 25
15 19 18 20 18 17 17 17 17 16 16 23 27 27 26 27 27 24 16 16 16 16 17 17 15 12 11 12 11 11 10 15 12 9 8 10 14 19 21 21 22 23 26 26 28 24 21 21 21 21 21 21 21 19 19 22 22 22 18 18 19 20 19 18 16 12 8 13 15 14 14 7 7 9 10 7 8 9 10 16 24 25 26 26 25
17 16 17 17 18 17 15 16 16 16 17 22 27 28 27 27 27 24 17 17 16 17 18 17 15 14 13 12 12 11 10 10 9 9 9 9 9 11 13 12 12 18 25 26 25 30 25 21 22 23 21 21 22 22 20 19 21 21 20 20 19 18 19 18 10 9 9 12 16 14 12 8 7 10 11 10 7 9 10 15 22 23 24 24 23
17 18 17 18 17 18 17 15 14 16 15 26 28 28 27 27 26 24 17 15 15 16 17 18 17 13 11 11 12 12 11 10 9 10 9 9 8 9 12 13 13 14 15 16 15 15 17 18 20 21 19 18 21 21 17 17 23 22 22 20 18 14 10 10 10 9 8 7 6 10 14 10 6 9 9 7 6 8 5 13 21 22 24 24 24
16 16 17 16 17 19 19 19 17 15 17 28 28 28 27 26 26 17 16 15 15 16 17 17 17 14 12 12 11 12 13 12 14 18 15 9 8 10 12 14 12 13 14 15 20 22 20 18 20 21 20 22 19 20 21 19 14 10 13 12 12 14 15 14 11 8 11 8 7 14 9 9 6 10 6 3 5 7 4 4 12 18 20 23 24
17 18 17 17 16 18 19 19 18 17 17 24 29 29 27 25 21 12 14 12 13 15 16 16 14 13 11 11 11 11 13 14 16 19 17 14 9 10 10 12 12 12 13 15 19 25 28 25 23 23 25 27 29 30 30 29 20 18 17 18 18 17 17 16 10 10 11 11 6 6 7 10 7 6 6 4 6 6 6 7 6 15 20 22 23
18 17 17 17 17 16 19 20 18 17 16 22 31 29 27 25 19 13 13 10 12 14 14 15 13 12 14 22 19 15 15 14 16 19 19 13 10 10 9 11 12 13 14 14 12 14 21 23 21 23 25 27 30 30 26 23 27 25 21 21 20 18 19 19 18 16 13 13 14 10 12 12 11 6 7 4 4 1 4 4 5 7 15 16 21
16 15 16 16 17 17 16 17 25 22 17 21 29 29 28 25 18 12 12 11 12 13 13 13 13 13 12 15 22 21 17 16 22 20 20 15 10 10 9 11 12 15 15 14 16 14 11 7 8 9 9 19 23 23 24 30 27 25 25 25 20 19 19 18 16 13 11 10 13 12 14 9 15 11 12 7 6 1 1 2 4 4 8 9 11
Wind_Direction
322 321 319 322 320 323 323 320 315 309 312 310 315 317 317 317 318 315 313 310 305 302 298 287 277 262 253 245 238 236 236 234 231 230 229 228 227 227 225 226 226 229 232 236 234 232 226 223 221 215 218 220 214 209 207 197 196 193 188 191 184 180 178 172 168 167 169 167 163 160 162 163 161 159 161 157 157 156 156 157 159 160 161 161 158
322 318 320 316 317 317 318 317 317 313 304 305 308 309 311 314 312 312 312 311 307 302 299 289 279 266 255 250 243 239 236 233 231 229 228 228 226 228 227 227 226 227 230 234 237 233 227 228 228 218 211 218 217 215 208 202 203 194 193 195 186 180 175 170 169 168 168 167 161 161 163 164 162 161 160 157 159 159 158 159 161 161 159 162 159
317 316 313 310 310 313 313 314 313 312 307 299 298 300 304 304 307 308 310 308 304 301 296 291 284 276 264 249 246 243 236 233 233 230 229 228 228 226 228 228 227 227 230 233 235 234 230 224 231 227 222 217 215 212 212 204 203 199 197 192 188 185 176 171 169 171 166 165 159 161 162 162 163 162 158 158 160 158 156 160 163 162 161 163 160
311 316 315 314 309 304 303 309 309 310 306 300 298 296 297 296 295 299 300 301 301 301 297 293 288 280 272 262 254 246 241 232 230 229 229 228 226 226 227 228 227 228 229 232 233 233 227 225 228 227 223 223 220 217 214 202 201 204 198 189 189 183 178 170 170 171 166 164 161 162 162 163 164 163 160 157 160 159 160 165 165 163 164 166 165
314 313 313 305 303 304 304 299 299 300 302 301 296 295 293 294 293 294 297 301 298 301 301 293 289 285 277 268 260 250 245 237 229 227 228 227 225 224 225 226 226 227 229 231 233 233 227 226 227 232 227 225 220 221 214 203 204 204 196 189 188 181 172 169 171 169 167 164 163 162 162 163 164 163 158 159 164 163 165 168 167 166 167 166 166
331 322 315 311 305 301 300 300 297 299 297 296 297 298 293 291 293 296 296 299 302 301 302 299 295 290 284 277 267 257 246 236 229 226 227 226 225 223 224 223 224 226 228 231 232 231 231 229 226 228 227 218 219 222 220 210 207 208 196 189 187 183 176 173 170 170 169 167 164 163 161 162 164 162 161 163 164 165 167 168 168 166 167 168 165
333 326 321 316 310 306 303 302 302 296 293 291 291 291 292 289 290 292 295 295 293 296 298 298 300 296 290 283 273 263 251 241 231 226 225 226 224 225 224 224 224 226 227 227 231 230 230 231 232 232 232 215 207 221 222 214 205 202 199 190 185 177 177 172 169 171 170 166 164 161 161 163 165 164 164 163 164 167 169 168 167 167 168 168 166
335 327 323 330 327 320 317 315 313 306 297 288 286 288 289 287 280 282 296 295 295 295 298 297 296 296 293 286 282 271 255 243 239 230 224 225 224 225 223 223 224 224 224 227 228 229 228 230 231 230 230 226 216 212 214 216 214 200 201 195 182 177 174 173 171 170 167 164 162 161 161 163 166 165 166 165 166 168 168 167 166 167 170 167 166
332 330 332 325 319 315 315 316 314 310 305 301 290 283 285 284 281 277 276 289 292 292 294 294 295 292 293 287 280 277 266 255 243 236 225 222 224 224 223 223 223 222 224 226 227 229 226 226 230 229 228 218 212 211 214 220 214 204 195 196 184 176 176 172 172 169 164 159 162 163 164 165 167 166 167 167 168 169 169 168 167 168 165 163 167
326 323 315 310 308 312 316 317 314 309 302 297 293 290 279 277 281 278 277 280 285 290 292 293 291 291 287 285 280 273 268 258 247 235 228 223 223 224 223 223 221 224 222 224 226 228 227 223 223 227 227 221 215 212 218 220 217 203 195 196 185 175 174 174 172 166 158 159 162 163 165 166 168 168 167 168 169 171 170 168 168 164 161 163 168
323 319 316 313 313 313 312 312 313 311 308 301 295 289 280 272 275 284 279 269 275 282 286 289 289 287 286 285 281 272 268 264 253 241 229 224 223 225 224 223 221 222 222 221 223 225 226 222 216 219 224 218 213 214 216 218 217 214 201 192 184 176 173 173 169 162 158 158 158 163 166 167 169 169 169 169 171 172 172 170 169 166 167 167 170
319 315 308 306 305 304 302 305 306 309 309 304 298 291 283 280 278 282 284 279 269 273 280 286 287 285 287 285 278 274 268 260 252 242 231 225 222 220 221 221 221 221 221 220 220 221 223 223 216 214 216 215 210 208 215 214 215 211 206 190 186 177 174 171 171 162 153 155 161 164 165 170 171 170 169 170 171 171 171 170 171 167 165 165 167
320 316 309 304 298 298 298 299 303 304 302 299 298 294 290 286 283 276 278 281 279 271 270 281 292 293 286 280 284 277 267 259 252 242 234 229 222 219 218 219 218 219 218 219 217 220 219 220 218 214 212 211 212 211 207 208 212 220 206 195 185 175 173 170 168 159 159 161 164 165 169 171 172 170 171 173 174 172 171 172 170 166 164 164 166
315 310 304 302 303 302 299 301 308 300 295 294 293 290 289 285 282 278 264 272 277 272 274 291 282 285 308 311 298 285 270 265 251 238 234 229 223 217 216 216 216 217 218 216 219 218 218 216 216 214 211 207 203 204 209 212 204 210 203 192 185 175 174 170 165 164 162 162 162 163 170 174 172 170 171 175 175 173 172 171 167 165 164 166 165
312 312 310 309 308 307 303 303 299 297 297 297 295 291 289 287 282 278 282 269 269 268 266 234 272 279 284 295 289 303 301 265 254 246 231 225 220 218 215 214 216 214 214 214 217 217 217 215 213 213 213 208 204 194 201 207 206 202 203 190 184 178 173 171 167 164 162 163 163 168 173 174 172 172 173 176 175 174 173 171 168 166 166 167 166
316 313 309 307 306 302 299 296 294 297 306 305 302 294 287 282 280 275 272 276 270 270 244 237 228 269 291 242 305 316 298 279 257 241 229 225 217 219 214 215 214 214 211 214 213 215 215 213 212 213 213 209 202 197 196 205 204 202 199 189 184 178 174 170 166 164 164 163 165 168 172 174 174 174 174 176 176 175 174 171 168 168 168 169 166
306 302 301 300 299 294 293 294 301 306 304 301 301 301 301 291 282 275 268 267 271 271 262 231 232 205 234 288 289 259 247 281 349 289 229 231 224 218 214 213 214 210 211 215 213 212 213 212 213 211 213 210 204 197 195 202 210 203 199 192 182 177 172 169 166 163 162 164 165 170 173 172 173 174 176 177 177 176 174 172 169 169 170 168 167
303 306 303 299 294 296 303 307 304 300 295 290 292 294 293 298 297 287 274 264 267 271 272 238 224 219 218 230 236 265 296 311 319 294 326 276 261 227 217 214 212 211 210 213 211 211 210 211 208 210 208 209 207 201 198 195 199 201 197 190 178 177 170 166 168 164 164 164 166 172 173 172 174 175 177 178 177 176 175 172 171 172 171 170 168
305 307 306 305 306 305 301 297 293 291 287 285 287 290 293 293 296 291 286 278 267 265 263 262 240 229 218 231 239 243 249 261 269 291 296 282 244 228 223 219 217 213 210 209 208 209 207 207 205 205 204 204 205 203 201 198 190 194 200 185 182 169 167 168 164 164 166 165 167 170 171 172 174 176 178 178 178 176 173 172 172 173 173 171 169
300 305 306 306 303 299 295 288 284 281 283 286 291 293 293 291 291 293 295 289 272 263 262 255 242 248 198 225 234 242 243 247 249 263 270 283 289 284 266 219 210 217 214 208 207 205 203 200 197 194 194 192 194 196 200 194 189 190 189 182 189 166 164 165 161 162 166 166 169 169 171 173 175 178 177 177 178 177 174 173 174 174 173 172 170
295 300 302 300 300 297 297 296 298 302 298 292 286 285 288 291 291 290 292 293 290 275 260 253 238 248 220 239 235 243 245 241 249 240 253 272 275 262 235 236 221 218 216 211 205 203 197 195 191 185 180 181 176 183 184 182 181 193 188 172 173 176 163 162 159 160 163 166 170 169 171 174 176 176 177 179 176 176 175 174 174 173 173 172 171
301 293 295 299 299 302 300 296 293 290 287 277 276 281 287 288 285 285 286 287 286 285 271 259 247 244 223 234 246 254 254 254 237 235 243 233 259 272 241 198 200 212 208 209 202 194 192 185 179 177 175 169 168 164 171 169 171 179 186 166 160 167 160 156 155 157 161 167 168 169 170 175 177 176 176 176 175 175 176 175 173 173 172 172 172
300 295 286 292 292 291 290 289 284 281 276 280 287 292 290 287 285 284 281 278 280 283 280 266 249 242 229 225 236 238 245 256 258 252 253 271 279 274 241 214 205 201 206 201 199 192 186 179 173 171 169 164 161 158 165 165 149 145 181 158 152 154 155 153 155 158 163 163 164 168 169 173 178 177 175 175 176 176 175 175 174 172 172 173 173
296 294 292 291 289 290 290 288 287 290 290 291 288 285 281 280 278 277 274 275 273 275 274 268 249 240 232 226 236 237 236 243 250 249 255 257 255 271 280 247 221 216 184 188 190 185 181 177 175 165 164 161 159 156 163 158 149 136 156 148 146 149 153 155 155 156 159 159 163 167 172 173 174 176 176 175 176 175 174 174 175 173 174 173 173
303 298 293 295 295 298 295 289 287 281 282 279 275 276 276 276 272 271 273 271 275 275 276 269 254 242 231 227 230 232 235 236 242 250 252 254 254 272 274 274 228 186 212 174 179 187 179 167 170 169 156 157 157 153 155 160 149 143 140 148 145 150 152 154 154 155 156 158 162 165 167 169 175 177 173 174 175 175 174 177 175 174 174 173 174
299 296 300 300 296 293 288 284 279 280 279 279 280 278 275 270 269 264 268 276 279 280 281 275 256 248 236 230 226 234 235 229 234 242 250 248 251 250 270 277 264 208 145 195 175 158 202 169 161 157 158 159 156 154 150 154 152 145 144 146 150 151 153 155 156 155 157 158 161 165 168 171 174 175 174 176 179 177 176 177 174 175 175 174 175
291 294 296 295 292 290 288 284 285 281 278 278 274 274 272 272 270 280 284 279 279 281 281 277 261 248 241 232 236 227 235 224 224 234 242 241 243 247 252 275 281 301 189 184 176 178 155 157 158 155 159 157 156 150 153 148 154 143 144 147 153 157 156 160 160 158 157 157 161 168 171 171 172 175 178 181 178 178 177 177 174 176 175 174 175
290 290 289 289 289 288 285 281 282 281 277 276 278 279 280 277 277 273 273 269 271 278 279 277 267 251 245 241 240 235 227 223 223 231 234 241 241 241 237 253 267 248 250 210 175 177 150 134 77 168 157 164 165 152 150 144 156 147 144 150 154 160 161 164 163 162 160 158 160 168 170 173 173 174 180 182 182 179 179 174 175 177 178 176 176
289 290 292 289 286 284 284 284 281 282 278 275 273 274 274 275 272 273 268 266 268 273 277 276 272 256 246 241 242 245 233 223 224 227 234 240 241 242 232 242 257 262 206 209 180 158 177 167 152 197 166 164 158 158 155 153 154 155 149 156 158 161 166 164 165 166 165 163 161 168 171 175 175 178 181 180 184 182 177 176 177 179 174 173 173
287 291 290 289 287 286 280 281 283 280 274 271 270 269 274 270 270 267 265 267 268 270 269 272 271 260 247 243 243 251 246 237 228 227 230 236 242 240 241 241 243 257 239 187 187 176 169 179 164 160 185 165 163 162 165 159 161 157 156 160 162 163 165 166 166 167 168 166 164 167 173 176 179 180 179 179 182 181 176 175 178 179 176 176 174
288 287 288 286 285 283 279 281 282 278 275 270 269 271 267 268 265 262 258 258 262 265 267 270 273 263 246 241 241 247 248 247 240 234 233 236 239 242 243 243 247 255 254 208 170 191 170 172 178 163 165 171 163 161 164 158 166 160 157 161 166 166 163 167 168 168 167 166 166 167 172 179 180 179 179 179 182 180 178 179 178 176 176 175 172
287 288 283 283 282 281 281 281 281 278 275 271 270 271 269 266 266 266 267 263 263 265 270 268 270 264 249 240 237 242 244 246 247 241 239 237 239 242 241 244 250 253 257 234 185 179 179 179 164 166 161 160 165 158 154 156 167 161 157 157 162 160 160 165 169 168 168 167 167 168 172 179 178 179 180 179 182 182 180 176 175 173 170 168 166
290 287 284 285 289 291 287 287 283 281 279 275 269 267 266 265 271 275 277 272 268 268 266 269 267 262 250 240 237 238 239 244 246 245 241 240 241 241 238 242 248 251 253 240 211 167 58 147 145 165 163 150 161 160 153 155 163 163 155 155 153 161 160 162 168 170 169 168 167 169 172 177 177 178 179 178 179 178 175 172 170 169 166 165 164
291 294 294 289 285 287 286 287 285 280 272 270 267 265 265 268 270 268 266 267 267 267 268 270 274 269 249 238 236 237 234 243 243 242 240 242 239 241 239 236 243 250 246 235 193 166 148 104 133 147 163 165 155 170 156 157 162 160 158 154 160 161 161 161 164 172 172 170 168 169 171 174 176 175 177 177 176 174 171 169 168 167 166 166 165
298 294 293 294 296 293 288 287 288 285 285 281 275 265 258 260 261 264 261 260 258 262 266 264 267 271 259 240 237 235 236 244 246 243 242 241 238 240 241 236 243 248 245 228 190 167 155 159 155 155 159 175 162 167 164 162 161 159 156 158 160 161 160 161 164 168 174 170 169 169 170 172 174 174 176 177 175 175 171 170 170 170 169 169 168
297 298 296 294 294 293 289 286 286 284 284 283 281 277 268 258 257 260 260 256 254 258 261 265 266 269 264 247 235 232 236 246 248 248 246 243 239 242 241 241 242 250 241 221 203 166 162 153 177 164 168 163 172 160 161 158 156 158 157 155 155 157 158 161 163 165 174 171 168 168 169 171 174 173 175 176 177 173 174 173 173 173 173 172 167
299 299 299 296 292 291 289 286 287 284 284 283 281 280 279 273 270 274 276 277 272 266 263 264 265 264 268 254 238 233 236 244 247 248 246 246 245 243 242 241 242 247 237 212 199 175 161 162 165 174 168 165 161 161 155 152 157 154 152 154 158 158 160 163 161 165 168 170 167 168 170 172 174 174 175 176 174 174 175 175 176 176 175 172 167
300 296 294 295 293 290 291 287 284 283 282 282 279 276 273 272 271 271 269 267 267 267 265 261 258 259 262 262 247 236 236 240 246 247 246 248 249 248 246 243 243 244 230 204 183 175 168 163 160 155 171 155 149 164 163 153 150 144 143 146 145 149 147 148 162 162 166 170 169 171 172 173 175 176 176 177 175 176 175 176 178 176 174 170 165
299 299 296 293 294 291 286 287 282 280 280 278 277 275 272 270 269 268 268 261 260 259 257 257 256 257 254 256 251 240 237 236 239 248 256 256 249 252 247 247 244 243 217 199 173 167 167 157 163 161 161 167 159 160 170 157 156 155 150 142 149 163 162 162 162 164 167 170 171 170 172 175 176 177 179 178 179 179 177 176 177 175 173 168 165
299 297 297 295 293 292 289 285 283 280 276 276 273 271 268 266 266 267 268 267 262 256 254 254 255 256 254 251 247 238 234 239 246 250 255 262 266 258 251 248 248 237 208 188 173 164 161 160 160 167 160 154 162 153 153 153 148 150 160 155 156 161 165 166 165 163 168 165 167 173 174 171 177 181 180 180 182 179 178 175 175 173 171 169 165
296 295 294 292 291 291 289 283 280 276 274 271 271 267 267 264 262 261 262 262 261 263 262 260 257 255 253 247 242 234 233 238 240 248 254 261 271 278 276 263 248 231 202 180 168 161 160 160 165 163 159 157 157 153 153 158 164 167 172 165 161 161 155 151 155 153 162 161 158 160 170 174 176 182 189 182 181 180 180 175 175 173 171 170 168
291 289 289 295 292 288 288 285 279 275 271 269 267 266 264 264 260 258 252 253 253 252 254 256 255 253 254 245 233 230 233 236 241 247 252 256 257 256 260 267 261 232 199 180 166 163 160 162 163 160 159 162 160 166 165 173 170 159 156 157 151 152 152 159 155 175 167 152 151 165 175 174 168 182 177 178 193 175 176 174 174 171 172 171 171
285 286 286 294 299 288 281 281 280 274 269 264 268 267 267 265 266 267 264 261 261 259 253 252 254 253 254 257 256 242 237 237 241 243 250 256 260 261 256 253 254 250 202 183 168 162 163 163 164 165 167 163 170 172 172 166 160 159 165 168 161 156 159 159 173 188 240 171 168 168 174 188 171 175 184 188 183 177 169 178 173 172 173 175 175
291 284 291 291 288 289 279 276 275 273 271 267 270 273 268 267 265 264 262 264 264 263 264 259 254 252 254 255 246 237 229 227 231 237 245 253 263 269 267 260 257 250 223 186 169 163 162 161 167 175 169 171 171 175 170 161 166 171 168 158 159 165 169 176 174 179 187 177 165 170 174 161 175 172 176 196 181 178 177 176 175 175 176 178 179
296 299 294 294 287 286 281 278 276 272 268 272 271 273 274 268 267 264 262 258 257 256 255 257 253 244 242 247 249 237 232 226 228 236 237 252 264 273 271 264 257 246 229 205 176 169 166 165 172 176 179 172 169 178 173 171 167 165 165 169 171 173 172 174 178 162 139 173 162 170 175 181 167 170 182 191 180 169 183 181 178 179 181 181 178
296 295 295 286 284 278 278 279 275 273 273 270 274 273 274 273 267 265 261 258 257 256 254 252 251 244 236 245 252 249 241 233 229 235 239 250 267 281 283 268 252 239 223 214 191 170 167 171 173 177 181 169 173 176 177 165 161 166 170 175 171 170 172 173 152 136 152 170 176 167 168 170 179 167 182 190 179 174 180 188 183 181 180 178 177
314 312 311 309 307 299 289 280 275 275 271 276 278 279 278 275 268 264 261 258 255 252 252 251 251 245 240 244 251 257 253 246 236 235 243 250 266 277 282 274 247 230 216 205 189 175 172 174 177 177 172 178 175 166 162 171 173 174 173 166 160 154 121 81 70 108 131 184 167 154 181 173 172 170 182 165 170 177 191 195 187 181 178 178 179
314 311 309 305 303 302 298 292 283 277 277 281 284 285 283 278 271 263 261 259 260 260 253 248 247 245 242 239 242 246 251 249 246 244 246 248 261 272 278 276 248 222 207 205 188 177 179 180 180 176 173 173 167 165 168 171 166 126 95 91 104 121 136 152 148 144 156 187 184 177 165 161 183 175 151 129 142 164 176 194 199 187 182 180 181
316 315 310 306 304 301 297 294 288 281 280 284 290 289 285 280 271 262 262 258 256 254 255 253 247 241 230 224 232 245 246 247 243 244 246 246 256 263 271 273 246 213 201 198 200 188 179 179 180 180 177 168 166 171 170 163 150 137 135 140 158 161 158 158 150 154 175 170 208 184 138 155 168 158 128 134 157 163 179 196 197 195 189 186 185
317 315 309 304 303 301 297 294 287 280 281 285 291 292 288 280 269 259 255 254 254 258 258 253 254 254 253 254 251 246 244 241 240 241 243 240 249 257 267 272 243 211 201 188 184 197 190 180 182 181 178 171 169 166 162 155 148 148 153 162 167 163 167 169 169 178 168 175 185 166 151 174 159 153 120 92 85 54 201 194 190 198 193 190 190
309 309 308 306 304 302 296 294 299 297 287 287 292 293 289 283 272 253 252 249 252 252 255 257 250 246 242 244 246 245 242 241 241 240 240 240 242 253 261 269 242 211 198 182 179 179 180 159 166 170 186 182 168 160 162 157 162 167 168 168 163 166 172 175 170 156 153 201 191 172 167 158 157 173 145 122 173 214 14 187 185 181 178 177 188